Location: Kunchanapalle
(16.4623°N, 80.6176°E)
Time: 17:58:03
(UTC+00:00)

ATLAS 2A CENTAUR R/B - Pass Details

Date: 13 August 2020
Orbit: 269 x 15883 km, 26.8° (Epoch: 17 September)

Event Time Altitude Azimuth Distance (km) Brightness Sun altitude
Exits shadow 23:37:46 18° 263° (W) 938 2.4 -10.8°
Maximum altitude 23:39:04 29° 210° (SSW) 557 1.5 -10.5°
Drops below altitude 10° 23:40:49 10° 143° (SE) 1,053 3.5 -10.1°
Sets 23:42:39 0° 129° (SE) 1,965 5.1 -9.7°
